Location: Campillo
(40.8621°N, 4.2488°W)
Time: 13:01:51
(UTC+00:00)

Cosmos 2154 Rocket - Pass Details

Date: 27 September 2021
Orbit: 965 x 997 km, 82.9° (Epoch: 15 October)

Event Time Altitude Azimuth Distance (km) Brightness Sun altitude
Rises 19:59:09 0° 212° (SSW) 3,701 7.2 -22.0°
Reaches altitude 10° 20:01:55 10° 221° (SW) 2,757 6.6 -22.5°
Maximum altitude 20:07:37 35° 285° (WNW) 1,565 5.6 -23.6°
Drops below altitude 10° 20:13:21 10° 350° (N) 2,768 6.7 -24.6°
Sets 20:16:09 0° 360° (N) 3,718 7.3 -25.1°
